This is the latest recevied weather packets stored in our database for station/object YM2KRB-11. If no packets are shown the sender has not sent any weather packets the latest 10 day(s).
| Time | Temp. | Humidity | Pressure | Rain* | Wind** | Luminosity | Snow |
|---|---|---|---|---|---|---|---|
| 1777592386 | 12.78° C | 44% | 939.4 hPa | - | - | - | - |
| 1777591185 | 12.78° C | 45% | 939.5 hPa | - | - | - | - |
| 1777589985 | 12.78° C | 45% | 939.7 hPa | - | - | - | - |
| 1777588784 | 12.78° C | 45% | 939.6 hPa | - | - | - | - |
| 1777587583 | 13.33° C | 45% | 939.8 hPa | - | - | - | - |
| 1777586382 | 13.33° C | 42% | 939.9 hPa | - | - | - | - |
| 1777585181 | 13.89° C | 41% | 940.3 hPa | - | - | - | - |
| 1777583981 | 13.89° C | 40% | 940.1 hPa | - | - | - | - |
| 1777582780 | 13.89° C | 40% | 940.4 hPa | - | - | - | - |
| 1777581579 | 13.33° C | 40% | 940.5 hPa | - | - | - | - |
| 1777580378 | 13.89° C | 39% | 940.4 hPa | - | - | - | - |
| 1777579177 | 13.33° C | 40% | 940.5 hPa | - | - | - | - |
| 1777577977 | 13.33° C | 40% | 940.6 hPa | - | - | - | - |
| 1777576776 | 13.89° C | 39% | 940.5 hPa | - | - | - | - |
| 1777575575 | 14.44° C | 38% | 940.7 hPa | - | - | - | - |
| 1777574374 | 15° C | 35% | 940.8 hPa | - | - | - | - |
| 1777573173 | 15.56° C | 34% | 940.8 hPa | - | - | - | - |
| 1777571973 | 16.11° C | 33% | 940.6 hPa | - | - | - | - |
| 1777570772 | 16.11° C | 33% | 940.4 hPa | - | - | - | - |
| 1777569571 | 16.67° C | 34% | 940.3 hPa | - | - | - | - |
| 1777568370 | 17.22° C | 34% | 940 hPa | - | - | - | - |
| 1777567169 | 17.22° C | 34% | 939.8 hPa | - | - | - | - |
| 1777565969 | 17.78° C | 32% | 939.6 hPa | - | - | - | - |
| 1777564768 | 18.33° C | 31% | 939.5 hPa | - | - | - | - |
| 1777563567 | 19.44° C | 30% | 939.3 hPa | - | - | - | - |
* Rain since midnight (hover to see other rain measurements)
** Current wind speed in m/s (hover to see current wind gust speed)